Location: Killam
(52.7910°N, 111.8608°W)
Time: 11:31:46
(UTC+00:00)

AO-85 - Pass Details

Date: 12 December 2023
Orbit: 516 x 753 km, 64.8° (Epoch: 04 January)

Event Time Altitude Azimuth Distance (km) Brightness Sun altitude
Rises 02:59:42 0° 311° (NW) 2,885 ? -33.0°
Reaches altitude 10° 03:02:05 10° 302° (WNW) 2,014 ? -33.3°
Enters shadow 03:04:47 27° 272° (W) 1,247 ? -33.7°
